Weather History for Milton, FL

Change the Weather History Date:

Friday, October 25, 2013

  Actual Average (KNSE) Record (KNSE)
Temperature  
Mean Temperature 58 °F -  
Max Temperature 69 °F 75 °F 86 °F (2010)
Min Temperature 48 °F 56 °F 37 °F (2005)
Degree Days  
Heating Degree Days 7    
Growing Degree Days 8 (Base 50)    
Moisture  
Dew Point 40 °F    
Average Humidity 56    
Maximum Humidity 86    
Minimum Humidity 27    
Precipitation  
Precipitation 0.00 in - - ()
Sea Level Pressure  
Sea Level Pressure 30.27 in    
Wind  
Wind Speed 9 mph (North)    
Max Wind Speed 13 mph    
Max Gust Speed 20 mph    
Visibility 10 miles    
Events      
Averages and records for this station are not official NWS values.
T = Trace of Precipitation, MM = Missing Value Source: NWS Daily Summary

Daily Weather History Graph

Daily Weather History Graph

Search for Another Location

Airport:

Trip Planner

Search our weather history database for the weather conditions in past years. The results will help you decide how hot, cold, wet, or windy it might be!

Date:

Astronomy

Oct. 25, 2013 Rise Set
Actual Time 6:57 AM CDT 6:06 PM CDT
Civil Twilight 6:33 AM CDT 6:30 PM CDT
Nautical Twilight 6:04 AM CDT 6:58 PM CDT
Astronomical Twilight 5:36 AM CDT 7:26 PM CDT
Moon 11:30 PM CDT (10/25) 12:31 PM CDT (10/25)
Length of Visible Light 11h 57m
Length of Day
11h 08m
Waning Gibbous, 62% of the Moon is Illuminated
Oct 25
Waning Gibbous
Oct 26
Last Quarter
Nov 3
New
Nov 9
First Quarter
Nov 17
Full

Hourly Weather History & Observations

Time (CDT) Temp. Dew Point Humidity Pressure Visibility Wind Dir Wind Speed Gust Speed Precip Events Conditions
12:56 AM 51.1 °F 46.9 °F 86% 30.17 in 10.0 mi WNW 5.8 mph - N/A   Clear
1:56 AM 52.0 °F 48.0 °F 86% 30.18 in 10.0 mi WNW 3.5 mph - N/A   Clear
2:56 AM 52.0 °F 48.0 °F 86% 30.19 in 10.0 mi NW 5.8 mph - N/A   Clear
3:56 AM 55.9 °F 50.0 °F 80% 30.20 in 10.0 mi North 9.2 mph - N/A   Clear
4:56 AM 54.0 °F 48.0 °F 80% 30.23 in 10.0 mi North 12.7 mph - N/A   Clear
5:56 AM 53.1 °F 46.0 °F 77% 30.26 in 10.0 mi North 12.7 mph - N/A   Clear
6:56 AM 51.1 °F 45.0 °F 80% 30.29 in 10.0 mi North 10.4 mph - N/A   Clear
7:56 AM 53.1 °F 45.0 °F 74% 30.31 in 10.0 mi NNE 10.4 mph - N/A   Clear
8:56 AM 55.0 °F 45.0 °F 69% 30.34 in 10.0 mi NNE 12.7 mph 19.6 mph N/A   Clear
9:56 AM 59.0 °F 44.1 °F 58% 30.34 in 10.0 mi NE 12.7 mph - N/A   Clear
10:56 AM 61.0 °F 44.1 °F 54% 30.34 in 10.0 mi NNE 12.7 mph - N/A   Clear
11:56 AM 64.0 °F 41.0 °F 43% 30.32 in 10.0 mi North 11.5 mph - N/A   Partly Cloudy
12:56 PM 66.9 °F 37.0 °F 33% 30.30 in 10.0 mi NNE 10.4 mph - N/A   Partly Cloudy
1:56 PM 66.9 °F 35.1 °F 31% 30.27 in 10.0 mi Variable 6.9 mph 18.4 mph N/A   Scattered Clouds
2:56 PM 68.0 °F 34.0 °F 28% 30.26 in 10.0 mi North 10.4 mph - N/A   Scattered Clouds
3:56 PM 66.9 °F 32.0 °F 27% 30.25 in 10.0 mi North 10.4 mph 19.6 mph N/A   Scattered Clouds
4:56 PM 66.0 °F 32.0 °F 28% 30.25 in 10.0 mi North 10.4 mph - N/A   Partly Cloudy
5:56 PM 61.0 °F 32.0 °F 34% 30.25 in 10.0 mi North 9.2 mph - N/A   Scattered Clouds
6:56 PM 57.0 °F 34.0 °F 42% 30.26 in 10.0 mi North 10.4 mph - N/A   Partly Cloudy
7:56 PM 54.0 °F 34.0 °F 47% 30.28 in 10.0 mi North 8.1 mph - N/A   Clear
8:56 PM 52.0 °F 34.0 °F 50% 30.29 in 10.0 mi NNE 6.9 mph - N/A   Clear
9:56 PM 51.1 °F 33.1 °F 50% 30.31 in 10.0 mi NNE 6.9 mph - N/A   Clear
10:56 PM 48.9 °F 33.1 °F 54% 30.30 in 10.0 mi North 6.9 mph - N/A   Clear
11:56 PM 48.9 °F 32.0 °F 52% 30.29 in 10.0 mi NNE 6.9 mph - N/A   Clear